Weather History for Pinedale, WY

Change the Weather History Date:

Saturday, March 23, 2013

  Actual Average (KBPI) Record (KBPI)
Temperature  
Mean Temperature 18 °F 30 °F  
Max Temperature 26 °F 45 °F 67 °F (2012)
Min Temperature 8 °F 16 °F 1 °F (2013)
Degree Days  
Heating Degree Days 47 35  
Month to date heating degree days 907  
Since 1 July heating degree days 8430  
Cooling Degree Days 0 0  
Month to date cooling degree days 0  
Year to date cooling degree days 0  
Moisture  
Dew Point 6 °F    
Average Humidity 64    
Maximum Humidity 93    
Minimum Humidity 29    
Precipitation  
Precipitation 0.00 in 0.01 in 0.50 in (2005)
Month to date precipitation 0.29  
Year to date precipitation 0.95  
Sea Level Pressure  
Sea Level Pressure 29.97 in    
Wind  
Wind Speed 8 mph (WNW)    
Max Wind Speed 26 mph    
Max Gust Speed 32 mph    
Visibility 10 miles    
Events Snow    
T = Trace of Precipitation, MM = Missing Value Source: NWS Daily Summary

Daily Weather History Graph

Daily Weather History Graph

Search for Another Location

Airport:

Trip Planner

Search our weather history database for the weather conditions in past years. The results will help you decide how hot, cold, wet, or windy it might be!

Date:

Astronomy

Mar. 23, 2013 Rise Set
Actual Time 7:16 AM MDT 7:35 PM MDT
Civil Twilight 6:48 AM MDT 8:03 PM MDT
Nautical Twilight 6:15 AM MDT 8:36 PM MDT
Astronomical Twilight 5:41 AM MDT 9:11 PM MDT
Moon 4:01 PM MDT (3/23) 4:59 AM MDT (3/23)
Length of Visible Light 13h 15m
Length of Day
12h 18m
Waxing Gibbous, 85% of the Moon is Illuminated
Mar 23
Waxing Gibbous
Mar 27
Full
Apr 2
Last Quarter
Apr 10
New
Apr 18
First Quarter

Hourly Weather History & Observations

Time (MDT) Temp. Windchill Dew Point Humidity Pressure Visibility Wind Dir Wind Speed Gust Speed Precip Events Conditions
12:15 AM 17.6 °F 10.7 °F 15.8 °F 93% 29.86 in 7.0 mi SSE 4.6 mph - N/A Snow Light Snow
12:35 AM 17.6 °F 9.3 °F 15.8 °F 93% 29.86 in 2.5 mi SSE 5.8 mph - N/A Snow Light Snow
12:55 AM 17.6 °F - 14.0 °F 86% 29.87 in 2.0 mi Calm Calm - N/A Snow Light Snow
1:15 AM 17.6 °F - 15.8 °F 93% 29.87 in 1.0 mi Calm Calm - N/A Snow Snow
1:35 AM 17.6 °F - 15.8 °F 93% 29.87 in 7.0 mi Calm Calm - N/A   Overcast
1:55 AM 17.6 °F 8.2 °F 15.8 °F 93% 29.87 in 10.0 mi NW 6.9 mph - N/A   Overcast
2:15 AM 17.6 °F 9.3 °F 14.0 °F 86% 29.87 in 10.0 mi WNW 5.8 mph - N/A   Overcast
2:35 AM 15.8 °F 7.2 °F 14.0 °F 93% 29.87 in 10.0 mi NW 5.8 mph - N/A   Overcast
2:55 AM 15.8 °F 10.2 °F 12.2 °F 86% 29.87 in 10.0 mi NNW 3.5 mph - N/A   Overcast
3:15 AM 15.8 °F 8.6 °F 12.2 °F 86% 29.88 in 10.0 mi NW 4.6 mph - N/A   Overcast
3:35 AM 15.8 °F 5.1 °F 10.4 °F 79% 29.88 in 10.0 mi West 8.1 mph - N/A   Overcast
3:55 AM 14.0 °F 8.2 °F 12.2 °F 93% 29.88 in 10.0 mi West 3.5 mph - N/A   Overcast
4:15 AM 14.0 °F 5.1 °F 12.2 °F 93% 29.88 in 10.0 mi WNW 5.8 mph - N/A   Overcast
4:35 AM 15.8 °F 6.1 °F 12.2 °F 86% 29.88 in 10.0 mi WNW 6.9 mph - N/A   Overcast
4:55 AM 15.8 °F 7.2 °F 12.2 °F 86% 29.88 in 10.0 mi West 5.8 mph - N/A   Overcast
5:15 AM 15.8 °F 6.1 °F 12.2 °F 86% 29.89 in 10.0 mi West 6.9 mph - N/A   Overcast
5:35 AM 15.8 °F 4.2 °F 12.2 °F 86% 29.90 in 10.0 mi WNW 9.2 mph - N/A   Overcast
5:55 AM 15.8 °F 4.2 °F 12.2 °F 86% 29.90 in 10.0 mi WNW 9.2 mph - N/A   Overcast
6:15 AM 15.8 °F 5.1 °F 12.2 °F 86% 29.91 in 10.0 mi NNW 8.1 mph - N/A   Overcast
6:35 AM 14.0 °F 3.9 °F 12.2 °F 93% 29.91 in 10.0 mi WNW 6.9 mph - N/A   Overcast
6:55 AM 12.2 °F 1.7 °F 8.6 °F 85% 29.92 in 10.0 mi WNW 6.9 mph - N/A   Scattered Clouds
7:15 AM 12.2 °F 0.7 °F 5.0 °F 73% 29.93 in 10.0 mi WNW 8.1 mph - N/A   Clear
7:35 AM 10.4 °F 0.8 °F 5.0 °F 79% 29.95 in 10.0 mi WNW 5.8 mph - N/A   Clear
7:55 AM 10.4 °F 0.8 °F 5.0 °F 79% 29.95 in 10.0 mi WNW 5.8 mph - N/A   Clear
8:15 AM 10.4 °F - 5.0 °F 79% 29.96 in 10.0 mi Calm Calm - N/A   Scattered Clouds
8:35 AM 12.2 °F 1.7 °F 5.0 °F 73% 29.97 in 10.0 mi NW 6.9 mph - N/A   Scattered Clouds
8:55 AM 14.0 °F 6.5 °F 5.0 °F 67% 29.97 in 10.0 mi NW 4.6 mph - N/A   Clear
9:15 AM 15.8 °F 5.1 °F 5.0 °F 62% 29.98 in 10.0 mi NW 8.1 mph - N/A   Clear
9:35 AM 15.8 °F 3.4 °F 5.0 °F 62% 29.98 in 10.0 mi NW 10.4 mph - N/A   Clear
9:55 AM 17.6 °F 5.7 °F 5.0 °F 58% 29.99 in 10.0 mi WNW 10.4 mph - N/A   Clear
10:15 AM 19.4 °F 6.6 °F 5.0 °F 54% 29.99 in 10.0 mi WNW 12.7 mph - N/A   Clear
10:35 AM 19.4 °F 8.6 °F 3.2 °F 49% 30.00 in 10.0 mi West 9.2 mph - N/A   Clear
10:55 AM 19.4 °F 8.6 °F 5.0 °F 54% 30.00 in 10.0 mi West 9.2 mph - N/A   Clear
11:15 AM 21.2 °F 11.7 °F 5.0 °F 50% 30.00 in 10.0 mi West 8.1 mph - N/A   Clear
11:35 AM 21.2 °F 12.6 °F 6.8 °F 54% 30.00 in 10.0 mi WSW 6.9 mph - N/A   Clear
11:55 AM 23.0 °F 14.7 °F 6.8 °F 50% 30.00 in 10.0 mi WSW 6.9 mph 10.4 mph N/A   Clear
12:15 PM 23.0 °F 15.8 °F 5.0 °F 46% 30.00 in 10.0 mi SW 5.8 mph - N/A   Clear
12:35 PM 23.0 °F 12.4 °F 8.6 °F 54% 30.00 in 10.0 mi WSW 10.4 mph - N/A   Clear
12:55 PM 23.0 °F 13.9 °F 3.2 °F 43% 29.99 in 10.0 mi West 8.1 mph - N/A   Scattered Clouds
1:15 PM 26.6 °F 16.2 °F 3.2 °F 37% 29.99 in 10.0 mi WSW 11.5 mph 19.6 mph N/A   Scattered Clouds
1:35 PM 24.8 °F 14.0 °F 1.4 °F 36% 29.99 in 10.0 mi West 11.5 mph 17.3 mph N/A   Scattered Clouds
1:55 PM 23.0 °F 10.6 °F -4.0 °F 31% 29.98 in 10.0 mi WNW 13.8 mph 20.7 mph N/A   Scattered Clouds
2:15 PM 26.6 °F 14.7 °F -2.2 °F 29% 29.98 in 10.0 mi West 15.0 mph 23.0 mph N/A   Clear
2:35 PM 23.0 °F 9.2 °F -0.4 °F 36% 29.98 in 10.0 mi WNW 17.3 mph 20.7 mph N/A   Scattered Clouds
2:55 PM 24.8 °F 12.4 °F -2.2 °F 31% 29.98 in 10.0 mi West 15.0 mph - N/A   Clear
3:15 PM 23.0 °F 10.1 °F -2.2 °F 33% 29.98 in 10.0 mi West 15.0 mph 21.9 mph N/A   Mostly Cloudy
3:35 PM 23.0 °F 11.1 °F -0.4 °F 36% 29.98 in 10.0 mi West 12.7 mph 19.6 mph N/A   Overcast
3:55 PM 23.0 °F 11.1 °F -4.0 °F 31% 29.98 in 10.0 mi WNW 12.7 mph 17.3 mph N/A   Overcast
4:15 PM 26.6 °F 13.1 °F -0.4 °F 31% 29.98 in 10.0 mi WNW 19.6 mph 23.0 mph N/A   Mostly Cloudy
4:35 PM 23.0 °F 6.3 °F 3.2 °F 43% 30.00 in 10.0 mi NW 26.5 mph 32.2 mph N/A   Mostly Cloudy
4:55 PM 23.0 °F 8.3 °F -0.4 °F 36% 30.00 in 10.0 mi WNW 19.6 mph 23.0 mph N/A   Scattered Clouds
5:15 PM 23.0 °F 11.7 °F -0.4 °F 36% 30.00 in 10.0 mi NW 11.5 mph - N/A   Mostly Cloudy
5:35 PM 23.0 °F 6.9 °F 6.8 °F 50% 30.01 in 10.0 mi NW 24.2 mph 31.1 mph N/A   Scattered Clouds
5:55 PM 21.2 °F 5.6 °F 5.0 °F 50% 30.01 in 10.0 mi WNW 20.7 mph 26.5 mph N/A   Clear
6:15 PM 21.2 °F 6.4 °F 1.4 °F 42% 30.01 in 10.0 mi WNW 18.4 mph 23.0 mph N/A   Clear
6:35 PM 21.2 °F 7.3 °F 1.4 °F 42% 30.02 in 10.0 mi WNW 16.1 mph - N/A   Mostly Cloudy
6:55 PM 21.2 °F 6.4 °F 1.4 °F 42% 30.02 in 10.0 mi WNW 18.4 mph 24.2 mph N/A   Scattered Clouds
7:15 PM 19.4 °F 5.0 °F -0.4 °F 42% 30.02 in 10.0 mi WNW 16.1 mph - N/A   Clear
7:35 PM 17.6 °F 3.2 °F 1.4 °F 49% 30.03 in 10.0 mi WNW 15.0 mph 18.4 mph N/A   Clear
7:55 PM 17.6 °F 6.4 °F 3.2 °F 53% 30.03 in 10.0 mi WNW 9.2 mph - N/A   Clear
8:15 PM 15.8 °F 3.4 °F 5.0 °F 62% 30.03 in 10.0 mi West 10.4 mph - N/A   Clear
8:35 PM 14.0 °F 1.2 °F 5.0 °F 67% 30.03 in 10.0 mi West 10.4 mph - N/A   Clear
8:55 PM 14.0 °F 2.9 °F 5.0 °F 67% 30.05 in 10.0 mi West 8.1 mph - N/A   Clear
9:15 PM 14.0 °F 2.0 °F 5.0 °F 67% 30.05 in 10.0 mi NW 9.2 mph - N/A   Mostly Cloudy
9:35 PM 12.2 °F -0.2 °F 5.0 °F 73% 30.06 in 10.0 mi NW 9.2 mph - N/A   Mostly Cloudy
9:55 PM 12.2 °F -0.2 °F 3.2 °F 67% 30.06 in 10.0 mi WNW 9.2 mph - N/A   Mostly Cloudy
10:15 PM 10.4 °F -0.4 °F 3.2 °F 73% 30.06 in 10.0 mi West 6.9 mph - N/A   Mostly Cloudy
10:35 PM 10.4 °F 2.2 °F 3.2 °F 73% 30.07 in 10.0 mi West 4.6 mph - N/A   Overcast
10:55 PM 10.4 °F 0.8 °F 3.2 °F 73% 30.07 in 10.0 mi WNW 5.8 mph - N/A   Mostly Cloudy
11:15 PM 10.4 °F 0.8 °F 1.4 °F 67% 30.07 in 10.0 mi NW 5.8 mph - N/A   Overcast
11:35 PM 10.4 °F 2.2 °F 1.4 °F 67% 30.06 in 10.0 mi NW 4.6 mph - N/A   Scattered Clouds
11:55 PM 8.6 °F - 1.4 °F 73% 30.06 in 10.0 mi Calm Calm - N/A   Clear